TimeCDT,TemperatureF,Dew PointF,Humidity,Sea Level PressureIn,VisibilityMPH,Wind Direction,Wind SpeedMPH,Gust SpeedMPH,PrecipitationIn,Events,Conditions,WindDirDegrees,DateUTC
12:56 AM,57.0,48.0,72,29.94,-9999.0,West,6.9,-,N/A,,Unknown,280,2013-06-05 05:56:00
1:56 AM,55.9,48.9,77,29.94,-9999.0,West,5.8,-,N/A,,Unknown,270,2013-06-05 06:56:00
2:56 AM,55.0,48.9,80,29.93,-9999.0,WNW,10.4,-,N/A,,Unknown,290,2013-06-05 07:56:00
3:56 AM,55.0,48.0,77,29.91,-9999.0,West,6.9,-,N/A,,Unknown,260,2013-06-05 08:56:00
4:56 AM,54.0,48.9,83,29.91,-9999.0,Calm,Calm,-,N/A,,Unknown,0,2013-06-05 09:56:00
5:56 AM,53.1,48.9,86,29.92,-9999.0,WNW,4.6,-,N/A,,Unknown,290,2013-06-05 10:56:00
6:56 AM,54.0,51.1,90,29.92,-9999.0,West,3.5,-,N/A,,Unknown,270,2013-06-05 11:56:00
7:56 AM,55.0,50.0,83,29.94,-9999.0,NNW,4.6,-,N/A,,Unknown,340,2013-06-05 12:56:00
8:56 AM,55.9,50.0,80,29.95,-9999.0,NW,5.8,-,N/A,,Unknown,310,2013-06-05 13:56:00
9:56 AM,59.0,50.0,72,29.95,-9999.0,NNW,4.6,-,N/A,,Unknown,330,2013-06-05 14:56:00
10:56 AM,62.1,50.0,65,29.95,-9999.0,North,6.9,-,N/A,,Unknown,350,2013-06-05 15:56:00
11:56 AM,64.9,50.0,58,29.96,-9999.0,NNW,10.4,-,N/A,,Unknown,340,2013-06-05 16:56:00
12:56 PM,66.0,50.0,56,29.96,-9999.0,NNW,12.7,-,N/A,,Unknown,340,2013-06-05 17:56:00
1:56 PM,64.9,52.0,63,29.96,-9999.0,NNW,13.8,-,N/A,,Unknown,340,2013-06-05 18:56:00
2:56 PM,64.0,53.1,67,29.96,-9999.0,North,17.3,-,N/A,,Unknown,10,2013-06-05 19:56:00
3:56 PM,64.0,52.0,65,29.96,-9999.0,NNE,19.6,26.5,N/A,,Unknown,20,2013-06-05 20:56:00
4:56 PM,62.1,53.1,72,29.98,-9999.0,NNE,20.7,26.5,N/A,,Unknown,30,2013-06-05 21:56:00
5:56 PM,59.0,52.0,78,30.00,-9999.0,NNE,17.3,-,N/A,,Unknown,20,2013-06-05 22:56:00
6:56 PM,59.0,52.0,78,29.99,-9999.0,North,12.7,-,N/A,,Unknown,350,2013-06-05 23:56:00
7:56 PM,60.1,52.0,75,30.00,-9999.0,North,12.7,-,N/A,,Unknown,360,2013-06-06 00:56:00
8:56 PM,59.0,51.1,75,30.00,-9999.0,NNE,15.0,-,N/A,,Unknown,20,2013-06-06 01:56:00
9:56 PM,57.0,51.1,81,30.01,-9999.0,NNE,11.5,-,N/A,,Unknown,20,2013-06-06 02:56:00
10:56 PM,57.0,52.0,83,30.01,-9999.0,NNE,10.4,-,N/A,,Unknown,30,2013-06-06 03:56:00
11:56 PM,55.0,52.0,89,30.02,-9999.0,ENE,8.1,-,N/A,,Unknown,70,2013-06-06 04:56:00